When you browse on this site, cookies collect data to enhance your experience and personalize the content and advertising you see.
Visit our Privacy Policy to learn more. By continuing to use the site, you agree to this use of cookies and data.
  • en France
  • Liste des pays
  • À 7 jours
  • Température de l'eau
  • Carte satellitaire
  • Carte météo
  • Widgets météo
  • user-avatar
    Se connecter

    Météo par heure à Marseille

    Ce jour, 23 Juillet, Mardi

    Heure Température Précipitation Vent Pression Humidité
    00:00 +28°C° 0 mm 1 m/s 760 mmHg 61%
    01:00 +28°C° 0 mm 1 m/s 760 mmHg 61%
    02:00 +26°C° 0 mm 0 m/s 760 mmHg 61%
    03:00 +26°C° 0 mm 0 m/s 759 mmHg 61%
    04:00 +26°C° 0 mm 0 m/s 759 mmHg 60%
    05:00 +28°C° 0 mm 1 m/s 759 mmHg 59%
    06:00 +29°C° 0 mm 1 m/s 759 mmHg 58%
    07:00 +30°C° 0 mm 1 m/s 760 mmHg 54%
    08:00 +31°C° 0 mm 1 m/s 760 mmHg 50%
    09:00 +33°C° 0 mm 1 m/s 760 mmHg 46%
    10:00 +34°C° 0 mm 2 m/s 760 mmHg 45%
    11:00 +34°C° 0 mm 2 m/s 759 mmHg 44%
    12:00 +35°C° 0 mm 3 m/s 759 mmHg 43%
    13:00 +35°C° 0 mm 3 m/s 759 mmHg 42%
    14:00 +35°C° 0 mm 3 m/s 759 mmHg 42%
    15:00 +35°C° 0 mm 3 m/s 759 mmHg 42%
    16:00 +34°C° 0 mm 2 m/s 758 mmHg 43%
    17:00 +32°C° 0 mm 2 m/s 758 mmHg 44%
    18:00 +32°C° 0 mm 2 m/s 758 mmHg 46%
    19:00 +31°C° 0 mm 1 m/s 758 mmHg 48%
    20:00 +30°C° 0 mm 1 m/s 758 mmHg 51%
    21:00 +28°C° 0 mm 0 m/s 758 mmHg 54%
    22:00 +27°C° 0 mm 0 m/s 758 mmHg 54%
    23:00 +29°C° 0 mm 1 m/s 758 mmHg 54%

    Demain, 24 Juillet, Mercredi

    Heure Température Précipitation Vent Pression Humidité
    00:00 +29°C° 0 mm 1 m/s 758 mmHg 55%
    01:00 +29°C° 0 mm 1 m/s 758 mmHg 55%
    02:00 +29°C° 0 mm 1 m/s 758 mmHg 55%
    03:00 +28°C° 0 mm 1 m/s 757 mmHg 56%
    04:00 +29°C° 0 mm 1 m/s 757 mmHg 55%
    05:00 +29°C° 0 mm 2 m/s 758 mmHg 54%
    06:00 +29°C° 0 mm 2 m/s 758 mmHg 52%
    07:00 +31°C° 0 mm 2 m/s 758 mmHg 48%
    08:00 +32°C° 0 mm 2 m/s 758 mmHg 45%
    09:00 +35°C° 0 mm 2 m/s 758 mmHg 41%
    10:00 +35°C° 0 mm 2 m/s 758 mmHg 39%
    11:00 +36°C° 0 mm 3 m/s 758 mmHg 38%
    12:00 +36°C° 0 mm 3 m/s 757 mmHg 37%
    13:00 +36°C° 0 mm 3 m/s 757 mmHg 37%
    14:00 +36°C° 0 mm 3 m/s 757 mmHg 37%
    15:00 +35°C° 0 mm 3 m/s 757 mmHg 37%
    16:00 +35°C° 0 mm 3 m/s 757 mmHg 39%
    17:00 +34°C° 0 mm 2 m/s 757 mmHg 41%
    18:00 +32°C° 0 mm 2 m/s 757 mmHg 43%
    19:00 +31°C° 0 mm 1 m/s 757 mmHg 46%
    20:00 +30°C° 0 mm 1 m/s 757 mmHg 48%
    21:00 +30°C° 0 mm 1 m/s 757 mmHg 51%
    22:00 +29°C° 0 mm 1 m/s 757 mmHg 52%
    23:00 +29°C° 0 mm 1 m/s 757 mmHg 53%

    Après-demain, 25 Juillet, Jeudi

    Heure Température Précipitation Vent Pression Humidité
    00:00 +29°C° 0 mm 1 m/s 757 mmHg 54%
    01:00 +28°C° 0 mm 1 m/s 757 mmHg 54%
    02:00 +28°C° 0 mm 1 m/s 757 mmHg 55%
    03:00 +28°C° 0 mm 1 m/s 757 mmHg 56%
    04:00 +26°C° 0 mm 0 m/s 757 mmHg 55%
    05:00 +27°C° 0 mm 0 m/s 757 mmHg 54%
    06:00 +27°C° 0 mm 0 m/s 757 mmHg 53%
    07:00 +30°C° 0 mm 1 m/s 757 mmHg 48%
    08:00 +32°C° 0 mm 1 m/s 757 mmHg 44%
    09:00 +33°C° 0 mm 1 m/s 757 mmHg 39%
    10:00 +35°C° 0 mm 2 m/s 757 mmHg 38%
    11:00 +35°C° 0 mm 2 m/s 757 mmHg 36%
    12:00 +36°C° 0 mm 3 m/s 757 mmHg 34%
    13:00 +35°C° 0 mm 3 m/s 757 mmHg 35%
    14:00 +35°C° 0 mm 3 m/s 756 mmHg 35%
    15:00 +35°C° 0 mm 3 m/s 756 mmHg 35%
    16:00 +34°C° 0 mm 3 m/s 756 mmHg 38%
    17:00 +32°C° 0 mm 2 m/s 756 mmHg 40%
    18:00 +31°C° 0 mm 2 m/s 756 mmHg 42%
    19:00 +31°C° 0 mm 1 m/s 756 mmHg 45%
    20:00 +30°C° 0 mm 1 m/s 756 mmHg 48%
    21:00 +29°C° 0 mm 1 m/s 756 mmHg 50%
    22:00 +27°C° 0 mm 0 m/s 756 mmHg 50%
    23:00 +26°C° 0 mm 0 m/s 756 mmHg 51%

    26 Juillet, Vendredi

    Heure Température Précipitation Vent Pression Humidité
    00:00 +26°C° 0 mm 0 m/s 756 mmHg 51%
    01:00 +28°C° 0 mm 1 m/s 755 mmHg 51%
    02:00 +27°C° 0 mm 1 m/s 755 mmHg 52%
    03:00 +27°C° 0 mm 1 m/s 755 mmHg 53%
    04:00 +25°C° 0 mm 0 m/s 755 mmHg 53%
    05:00 +26°C° 0 mm 0 m/s 755 mmHg 53%
    06:00 +26°C° 0 mm 0 m/s 755 mmHg 53%
    07:00 +29°C° 0 mm 1 m/s 755 mmHg 49%
    08:00 +31°C° 0 mm 1 m/s 754 mmHg 44%
    09:00 +32°C° 0 mm 2 m/s 754 mmHg 40%
    10:00 +34°C° 0 mm 2 m/s 754 mmHg 38%
    11:00 +34°C° 0 mm 3 m/s 754 mmHg 37%
    12:00 +35°C° 0 mm 3 m/s 753 mmHg 36%
    13:00 +35°C° 0 mm 3 m/s 753 mmHg 38%
    14:00 +34°C° 0 mm 4 m/s 753 mmHg 39%
    15:00 +34°C° 0 mm 4 m/s 752 mmHg 41%
    16:00 +33°C° 0 mm 4 m/s 752 mmHg 43%
    17:00 +31°C° 0 mm 3 m/s 752 mmHg 45%
    18:00 +30°C° 0 mm 2 m/s 751 mmHg 47%
    19:00 +30°C° 0 mm 2 m/s 752 mmHg 50%
    20:00 +29°C° 0 mm 2 m/s 752 mmHg 53%
    21:00 +28°C° 0 mm 1 m/s 752 mmHg 56%
    22:00 +28°C° 0 mm 2 m/s 752 mmHg 56%
    23:00 +28°C° 0 mm 2 m/s 751 mmHg 57%

    27 Juillet, Samedi

    Heure Température Précipitation Vent Pression Humidité
    00:00 +27°C° 0 mm 2 m/s 751 mmHg 57%
    01:00 +27°C° 0 mm 2 m/s 751 mmHg 57%
    02:00 +27°C° 0 mm 3 m/s 750 mmHg 58%
    03:00 +27°C° 0 mm 3 m/s 750 mmHg 59%
    04:00 +27°C° 0 mm 3 m/s 750 mmHg 60%
    05:00 +27°C° 0 mm 2 m/s 750 mmHg 62%
    06:00 +27°C° 0 mm 2 m/s 750 mmHg 64%
    07:00 +28°C° 0.2 mm 3 m/s 750 mmHg 64%
    08:00 +28°C° 0.2 mm 3 m/s 750 mmHg 64%
    09:00 +28°C° 0.2 mm 4 m/s 750 mmHg 65%
    10:00 +27°C° 1.3 mm 4 m/s 750 mmHg 68%
    11:00 +27°C° 1.3 mm 4 m/s 750 mmHg 72%
    12:00 +26°C° 1.3 mm 3 m/s 750 mmHg 76%
    13:00 +26°C° 0.3 mm 3 m/s 750 mmHg 72%
    14:00 +26°C° 0.3 mm 2 m/s 750 mmHg 68%
    15:00 +26°C° 0.3 mm 2 m/s 750 mmHg 65%
    16:00 +26°C° 0.1 mm 2 m/s 750 mmHg 65%
    17:00 +26°C° 0.1 mm 1 m/s 750 mmHg 66%
    18:00 +26°C° 0.1 mm 1 m/s 750 mmHg 66%
    19:00 +25°C° 0 mm 2 m/s 750 mmHg 68%
    20:00 +25°C° 0 mm 2 m/s 750 mmHg 70%
    21:00 +25°C° 0 mm 2 m/s 751 mmHg 72%
    22:00 +25°C° 0 mm 3 m/s 750 mmHg 72%
    23:00 +23°C° 0 mm 4 m/s 750 mmHg 72%

    28 Juillet, Dimanche

    Heure Température Précipitation Vent Pression Humidité
    00:00 +23°C° 0 mm 5 m/s 750 mmHg 72%
    01:00 +23°C° 0 mm 5 m/s 750 mmHg 72%
    02:00 +23°C° 0 mm 5 m/s 750 mmHg 73%
    03:00 +23°C° 0 mm 5 m/s 750 mmHg 73%
    04:00 +23°C° 0 mm 6 m/s 750 mmHg 71%
    05:00 +23°C° 0 mm 6 m/s 750 mmHg 70%
    06:00 +23°C° 0 mm 6 m/s 751 mmHg 68%
    07:00 +26°C° 0 mm 6 m/s 751 mmHg 62%
    08:00 +27°C° 0 mm 7 m/s 751 mmHg 57%
    09:00 +28°C° 0 mm 7 m/s 751 mmHg 51%
    10:00 +29°C° 0 mm 7 m/s 751 mmHg 48%
    11:00 +30°C° 0 mm 7 m/s 751 mmHg 44%
    12:00 +32°C° 0 mm 7 m/s 751 mmHg 41%
    13:00 +33°C° 0 mm 8 m/s 751 mmHg 40%
    14:00 +33°C° 0 mm 8 m/s 751 mmHg 39%
    15:00 +33°C° 0 mm 9 m/s 751 mmHg 38%
    16:00 +32°C° 0 mm 9 m/s 751 mmHg 40%
    17:00 +31°C° 0 mm 9 m/s 751 mmHg 42%
    18:00 +29°C° 0 mm 10 m/s 751 mmHg 44%
    19:00 +28°C° 0 mm 9 m/s 751 mmHg 47%
    20:00 +27°C° 0 mm 9 m/s 752 mmHg 50%
    21:00 +26°C° 0 mm 9 m/s 752 mmHg 54%
    22:00 +24°C° 0 mm 8 m/s 752 mmHg 56%
    23:00 +23°C° 0 mm 8 m/s 752 mmHg 58%
    Voir plus